| time (UTC) | temp F | wind direction | speed MPH | gust MPH | rain 1hr in | rain 24hr in | rain mn in | humidity % | barometer mb |
| 20260504050737 | 61 | 153 | 1.0 | 4.0 | 0.00 | 0.00 | 0.00 | 74 | 1014.4 |
| 20260504044737 | 60 | 136 | 1.0 | 4.0 | 0.00 | 0.00 | 0.00 | 76 | 1014.5 |
| 20260504042736 | 60 | 193 | 1.0 | 4.0 | 0.00 | 0.00 | 0.00 | 78 | 1014.5 |
| 20260504040735 | 60 | 203 | 2.0 | 5.0 | 0.00 | 0.00 | 0.00 | 78 | 1014.5 |
| 20260504035735 | 60 | 176 | 2.0 | 5.0 | 0.00 | 0.00 | 0.00 | 77 | 1014.5 |
| 20260504034734 | 60 | 198 | 3.0 | 7.0 | 0.00 | 0.00 | 0.00 | 76 | 1014.4 |
| 20260504033734 | 60 | 203 | 3.0 | 6.0 | 0.00 | 0.00 | 0.00 | 75 | 1014.4 |
| 20260504032733 | 61 | 210 | 1.0 | 4.0 | 0.00 | 0.00 | 0.00 | 75 | 1014.4 |
| 20260504031733 | 61 | 215 | 1.0 | 3.0 | 0.00 | 0.00 | 0.00 | 74 | 1014.4 |
| 20260504030733 | 61 | 190 | 2.0 | 5.0 | 0.00 | 0.00 | 0.00 | 73 | 1014.3 |
| 20260504022731 | 62 | 222 | 3.0 | 6.0 | 0.00 | 0.00 | 0.00 | 70 | 1014.0 |
| 20260504015730 | 62 | 217 | 2.0 | 6.0 | 0.00 | 0.00 | 0.00 | 69 | 1013.8 |
| 20260504014730 | 62 | 143 | 2.0 | 4.0 | 0.00 | 0.00 | 0.00 | 68 | 1013.8 |
| 20260504013729 | 62 | 153 | 2.0 | 4.0 | 0.00 | 0.00 | 0.00 | 68 | 1013.7 |
| 20260504012729 | 63 | 205 | 2.0 | 7.0 | 0.00 | 0.00 | 0.00 | 67 | 1013.6 |
| 20260504011729 | 62 | 160 | 3.0 | 8.0 | 0.00 | 0.00 | 0.00 | 67 | 1013.6 |
| 20260504010729 | 62 | 201 | 2.0 | 6.0 | 0.00 | 0.00 | 0.00 | 68 | 1013.4 |
| 20260504005728 | 62 | 176 | 2.0 | 5.0 | 0.00 | 0.00 | 0.00 | 68 | 1013.3 |
| 20260504004728 | 62 | 143 | 2.0 | 4.0 | 0.00 | 0.00 | 0.00 | 68 | 1013.3 |
| 20260504003727 | 63 | 155 | 3.0 | 5.0 | 0.00 | 0.00 | 0.00 | 67 | 1013.2 |
| 20260504002727 | 63 | 152 | 2.0 | 5.0 | 0.00 | 0.00 | 0.00 | 67 | 1013.1 |
| 20260504001726 | 63 | 211 | 1.0 | 4.0 | 0.00 | 0.00 | 0.00 | 67 | 1013.1 |
| 20260503235726 | 63 | 204 | 3.0 | 7.0 | 0.00 | 0.00 | 0.00 | 66 | 1012.8 |
| 20260503234725 | 63 | 143 | 1.0 | 5.0 | 0.00 | 0.00 | 0.00 | 67 | 1012.7 |
| 20260503232725 | 64 | 155 | 4.0 | 8.0 | 0.00 | 0.00 | 0.00 | 64 | 1012.5 |
| 20260503230724 | 64 | 162 | 2.0 | 6.0 | 0.00 | 0.00 | 0.00 | 66 | 1012.4 |
| 20260503225724 | 63 | 162 | 2.0 | 5.0 | 0.00 | 0.00 | 0.00 | 66 | 1012.4 |
| 20260503222722 | 64 | 200 | 3.0 | 8.0 | 0.00 | 0.00 | 0.00 | 66 | 1011.9 |
| 20260503221722 | 64 | 153 | 3.0 | 8.0 | 0.00 | 0.00 | 0.00 | 66 | 1011.8 |
| 20260503220722 | 64 | 167 | 3.0 | 6.0 | 0.00 | 0.00 | 0.00 | 66 | 1011.7 |
| 20260503215721 | 63 | 156 | 3.0 | 6.0 | 0.00 | 0.00 | 0.00 | 68 | 1011.6 |
| 20260503214721 | 59 | 152 | 2.0 | 5.0 | 0.00 | 0.00 | 0.00 | 75 | 1011.5 |
| 20260503213721 | 58 | 0 | 0.0 | 0.0 | 0.00 | 0.00 | 0.00 | 80 | 1011.3 |
| 20260503212720 | 60 | 0 | 0.0 | 0.0 | 0.00 | 0.00 | 0.00 | 75 | 1011.3 |
| 20260503211720 | 61 | 0 | 0.0 | 0.0 | 0.00 | 0.00 | 0.00 | 72 | 1011.1 |
| 20260503210720 | 62 | 0 | 0.0 | 0.0 | 0.00 | 0.00 | 0.00 | 69 | 1011.0 |
| 20260503204719 | 64 | 0 | 0.0 | 0.0 | 0.00 | 0.00 | 0.00 | 63 | 1011.0 |
| 20260503203718 | 63 | 0 | 0.0 | 0.0 | 0.00 | 0.00 | 0.00 | 64 | 1011.0 |
| 20260503202718 | 63 | 142 | 0.0 | 2.0 | 0.00 | 0.00 | 0.00 | 64 | 1011.0 |
| 20260503201718 | 63 | 65 | 1.0 | 3.0 | 0.00 | 0.00 | 0.00 | 66 | 1011.0 |
| 20260503195717 | 65 | 353 | 0.0 | 2.0 | 0.00 | 0.00 | 0.00 | 65 | 1011.0 |
| 20260503194717 | 67 | 0 | 0.0 | 0.0 | 0.00 | 0.00 | 0.00 | 59 | 1010.9 |
| 20260503193716 | 68 | 44 | 1.0 | 2.0 | 0.00 | 0.00 | 0.00 | 55 | 1010.8 |
| 20260503192716 | 67 | 0 | 0.0 | 0.0 | 0.00 | 0.00 | 0.00 | 56 | 1010.7 |
| 20260503191716 | 68 | 0 | 0.0 | 0.0 | 0.00 | 0.00 | 0.00 | 59 | 1010.7 |
| 20260503184714 | 69 | 0 | 0.0 | 0.0 | 0.00 | 0.00 | 0.00 | 55 | 1010.8 |
| 20260503183714 | 70 | 131 | 0.0 | 1.0 | 0.00 | 0.00 | 0.00 | 51 | 1010.8 |
| 20260503182714 | 71 | 49 | 2.0 | 4.0 | 0.00 | 0.00 | 0.00 | 49 | 1010.6 |
| 20260503180713 | 72 | 46 | 3.0 | 4.0 | 0.00 | 0.00 | 0.00 | 48 | 1010.7 |
| 20260503174712 | 72 | 48 | 3.0 | 4.0 | 0.00 | 0.00 | 0.00 | 50 | 1010.7 |
| 20260503173712 | 73 | 41 | 3.0 | 4.0 | 0.00 | 0.00 | 0.00 | 49 | 1010.7 |
| 20260503172712 | 75 | 35 | 2.0 | 4.0 | 0.00 | 0.00 | 0.00 | 45 | 1010.8 |
| 20260503171711 | 76 | 45 | 2.0 | 3.0 | 0.00 | 0.00 | 0.00 | 43 | 1010.7 |
| 20260503170711 | 77 | 59 | 2.0 | 4.0 | 0.00 | 0.00 | 0.00 | 41 | 1010.7 |
| 20260503110658 | 81 | 288 | 2.0 | 7.0 | 0.00 | 0.00 | 0.00 | 43 | 1013.6 |
| 20260503080651 | 75 | 169 | 0.0 | 2.0 | 0.00 | 0.00 | 0.00 | 51 | 1015.7 |
| 20260503072650 | 69 | 198 | 1.0 | 3.0 | 0.00 | 0.00 | 0.00 | 58 | 1015.7 |
| 20260503071649 | 69 | 158 | 1.0 | 4.0 | 0.00 | 0.00 | 0.00 | 58 | 1015.7 |
| 20260503070649 | 70 | 203 | 1.0 | 3.0 | 0.00 | 0.00 | 0.00 | 55 | 1015.8 |